Weather History for Northeast Philadelphia, PA

Change the Weather History Date:

Sunday, September 23, 2012

  Actual Average Record
Temperature  
Mean Temperature 60 °F -  
Max Temperature 69 °F 72 °F 91 °F (2005)
Min Temperature 53 °F 53 °F 44 °F (1999)
Degree Days  
Heating Degree Days 6    
Growing Degree Days 10 (Base 50)    
Moisture  
Dew Point 45 °F    
Average Humidity 58    
Maximum Humidity 93    
Minimum Humidity 42    
Precipitation  
Precipitation 0.00 in - - ()
Sea Level Pressure  
Sea Level Pressure 30.07 in    
Wind  
Wind Speed 7 mph (NW)    
Max Wind Speed 16 mph    
Max Gust Speed 20 mph    
Visibility 10 miles    
Events      
Averages and records for this station are not official NWS values.
T = Trace of Precipitation, MM = Missing Value Source: NWS Daily Summary

Daily Weather History Graph

Daily Weather History Graph

Search for Another Location

Airport:

Trip Planner

Search our weather history database for the weather conditions in past years. The results will help you decide how hot, cold, wet, or windy it might be!

Date:

Astronomy

Sep. 23, 2012 Rise Set
Actual Time 6:49 AM EDT 6:54 PM EDT
Civil Twilight 6:21 AM EDT 7:21 PM EDT
Nautical Twilight 5:50 AM EDT 7:53 PM EDT
Astronomical Twilight 5:18 AM EDT 8:25 PM EDT
Moon 2:54 PM EDT (9/23) No Moon Set
Length of Visible Light 12h 59m
Length of Day
12h 05m
First Quarter, 60% of the Moon is Illuminated
Sep 23
First Quarter
Sep 29
Full
Oct 8
Last Quarter
Oct 15
New
Oct 21
First Quarter

Hourly Weather History & Observations

Time (EDT) Temp. Dew Point Humidity Pressure Visibility Wind Dir Wind Speed Gust Speed Precip Events Conditions
12:54 AM 64.9 °F 63.0 °F 93% 29.90 in 4.0 mi Calm Calm - N/A   Mostly Cloudy
1:54 AM 64.9 °F 57.9 °F 78% 29.92 in 10.0 mi West 6.9 mph - N/A   Overcast
2:54 AM 62.1 °F 51.1 °F 67% 29.94 in 10.0 mi WNW 8.1 mph - N/A   Mostly Cloudy
3:54 AM 60.1 °F 46.9 °F 62% 29.96 in 10.0 mi WNW 5.8 mph - N/A   Clear
4:54 AM 59.0 °F 46.0 °F 62% 29.99 in 10.0 mi WNW 10.4 mph - N/A   Overcast
5:54 AM 55.9 °F 44.1 °F 64% 30.02 in 10.0 mi NW 6.9 mph - N/A   Clear
6:54 AM 54.0 °F 45.0 °F 72% 30.05 in 10.0 mi NW 6.9 mph - N/A   Clear
7:54 AM 55.9 °F 45.0 °F 67% 30.08 in 10.0 mi NNW 6.9 mph - N/A   Clear
8:54 AM 57.9 °F 45.0 °F 62% 30.09 in 10.0 mi NW 9.2 mph - N/A   Clear
9:54 AM 61.0 °F 44.1 °F 54% 30.10 in 10.0 mi NNW 13.8 mph - N/A   Clear
10:54 AM 63.0 °F 43.0 °F 48% 30.10 in 10.0 mi NNW 13.8 mph - N/A   Clear
11:54 AM 64.9 °F 41.0 °F 42% 30.10 in 10.0 mi NNW 12.7 mph 18.4 mph N/A   Clear
12:54 PM 66.0 °F 43.0 °F 43% 30.10 in 10.0 mi NNW 5.8 mph - N/A   Clear
1:54 PM 66.9 °F 43.0 °F 42% 30.08 in 10.0 mi NW 11.5 mph 19.6 mph N/A   Clear
2:54 PM 66.0 °F 42.1 °F 42% 30.08 in 10.0 mi North 16.1 mph - N/A   Clear
3:54 PM 66.0 °F 42.1 °F 42% 30.08 in 10.0 mi WNW 8.1 mph - N/A   Partly Cloudy
4:54 PM 64.9 °F 41.0 °F 42% 30.08 in 10.0 mi WNW 9.2 mph 18.4 mph N/A   Mostly Cloudy
5:54 PM 63.0 °F 39.9 °F 43% 30.10 in 10.0 mi WNW 8.1 mph - N/A   Clear
6:54 PM 61.0 °F 39.9 °F 46% 30.11 in 10.0 mi WNW 4.6 mph - N/A   Clear
7:54 PM 57.0 °F 43.0 °F 59% 30.12 in 10.0 mi West 4.6 mph - N/A   Clear
8:54 PM 55.9 °F 44.1 °F 64% 30.13 in 10.0 mi Calm Calm - N/A   Clear
9:54 PM 53.1 °F 43.0 °F 69% 30.14 in 10.0 mi West 4.6 mph - N/A   Clear
10:54 PM 55.0 °F 43.0 °F 64% 30.15 in 10.0 mi WNW 6.9 mph - N/A   Clear
11:54 PM 54.0 °F 43.0 °F 66% 30.15 in 10.0 mi WNW 6.9 mph - N/A   Clear